map of EMA home
EMA - Airport
Location
City:  Derby, Leicestershire, England, United Kingdom
Name:East Midlands Airport
Old (Alt.):Castle Donnington
ICAO:EGNX
IATA:EMA

Details
Type:Airport (Aerodrome, Airfield)
Use:Public/Civil, International (customs port of entry)
Latitude:5249'52"N (52.831111)
Longitude:119'40"W (-1.327777)
Elevation:306 ft (93 m)
Variation:0.93W (WMM2015 magnetic declination)
0.15 annual change
Runways:1
Longest:9491 × 151 ft (2893 × 46 m), paved

Time
Time Zone:UTC+0 (DST+1)
Local Time:

Weather
METAR:EGNX 220350Z 22008KT CAVOK 15/14 Q1016
TAF:EGNX 212258Z 2200/2224 25006KT 9999 SCT030
TEMPO 2202/2210 BKN014 PROB30
TEMPO 2202/2207 8000 BKN008
BECMG 2221/2224 8000 -RA BKN010

Related Locations
Nearby:
Farthest:NZBA: 11828 mi / 19035 km
Balclutha, OTA, NZ

Find:

   beyond  
but within

Other Information
Maps:
NOTAMs:
Links:
Sources:

  
  • flag of United Kingdom
  • flag of England
  

Airport Diagram

Airport diagram for EMA

Airport diagram PDF

Sectional Chart

Flight Planning
at skyvector.com

Satellite Image

Google Maps Satellite view

 

Copyright © 2004-2018 Karl L. Swartz. All rights reserved.
The Great Circle Mapper name and logo are trademarks of the Great Circle Mapper.
All other trademarks mentioned herein belong to their respective owners.
Please see credits for attibutions and further copyright information.

  Follow gcmap on Facebook Follow gcmap on Twitter Follow gcmap on Google+ GCmap on LinkedIn

hCard Microformat

Geo Microformat